This is the latest recevied weather packets stored in our database for station/object KB2EAR-13. If no packets are shown the sender has not sent any weather packets the latest 10 day(s).
| Time | Temp. | Humidity | Pressure | Rain* | Wind** | Luminosity | Snow |
|---|---|---|---|---|---|---|---|
| 1788419116 | 20° C | 97% | 1017 hPa | 2.29 mm | - | - | - |
| 1788418816 | 20° C | 97% | 1017.3 hPa | 2.54 mm | - | - | - |
| 1788418516 | 20.56° C | 97% | 1017.4 hPa | 2.29 mm | - | - | - |
| 1788418216 | 20.56° C | 97% | 1017.5 hPa | 2.29 mm | - | - | - |
| 1788417917 | 20.56° C | 97% | 1017.8 hPa | 2.29 mm | - | - | - |
| 1788417616 | 20.56° C | 97% | 1018 hPa | 2.29 mm | - | - | - |
| 1788417316 | 20.56° C | 97% | 1018.1 hPa | 2.29 mm | - | - | - |
| 1788417016 | 20.56° C | 97% | 1018.3 hPa | 2.29 mm | - | - | - |
| 1788416716 | 20.56° C | 97% | 1018.1 hPa | 2.79 mm | - | - | - |
| 1788416416 | 20.56° C | 97% | 1017.5 hPa | 2.54 mm | - | - | - |
| 1788416116 | 20.56° C | 97% | 1017.5 hPa | 2.54 mm | - | - | - |
| 1788415816 | 20.56° C | 97% | 1017.5 hPa | 2.29 mm | - | - | - |
| 1788415516 | 20.56° C | 97% | 1017.8 hPa | 2.29 mm | - | - | - |
| 1788415216 | 20.56° C | 97% | 1018.2 hPa | 2.03 mm | - | - | - |
| 1788414916 | 20.56° C | 97% | 1018.4 hPa | 2.03 mm | - | - | - |
| 1788414616 | 20.56° C | 97% | 1018.5 hPa | 1.78 mm | - | - | - |
| 1788414316 | 20.56° C | 97% | 1018.6 hPa | 1.52 mm | - | - | - |
| 1788414016 | 20.56° C | 96% | 1018.7 hPa | 1.27 mm | - | - | - |
| 1788413716 | 20.56° C | 96% | 1018.5 hPa | 1.02 mm | - | - | - |
| 1788413418 | 20.56° C | 96% | 1018.4 hPa | 0.76 mm | - | - | - |
| 1788413118 | 20.56° C | 96% | 1018.8 hPa | 0.25 mm | - | - | - |
| 1788412818 | 20.56° C | 96% | 1018.9 hPa | 0.25 mm | - | - | - |
| 1788412518 | 20.56° C | 96% | 1018.9 hPa | 0.25 mm | - | - | - |
| 1788412218 | 20.56° C | 96% | 1019.1 hPa | 0 mm | - | - | - |
| 1788411918 | 20.56° C | 96% | 1019.2 hPa | 0 mm | - | - | - |
* Rain latest hour (hover to see other rain measurements)
** Current wind speed in m/s (hover to see current wind gust speed)